{"data":{"norad_id":54076,"epoch":"2026-05-25T00:23:37.540608Z","epoch_age_seconds":70057,"freshness":"FRESH","line1":"1 54076U 22136AB  26145.01640672  .00000134  00000+0  26495-4 0  9997","line2":"2 54076  53.2151   1.6782 0001439  83.6985 276.4171 15.08841647198360","mean_motion":15.08841647,"eccentricity":0.0001439,"inclination_deg":53.2151,"raan_deg":1.6782,"arg_perigee_deg":83.6985,"mean_anomaly_deg":276.4171,"bstar":2.6495e-5,"rev_number":19836,"period_min":95.437450501391,"perigee_km":538.74287248503,"apogee_km":540.73383701212,"semimajor_km":6917.8753547486,"source":"CELESTRAK","updated_at":"2026-05-25T13:38:17.652448Z"}}